User: anonymous   Login
Location: Caltech
(34.1382°N, 118.1253°W)
Time: 06:22:01
(UTC-08:00)
Language:

Iridium 91 - Orbit

View from above orbital plane
View from above orbital plane
View from above satellite
View from above satellite

Ground track
Ground track

The orbit data is extracted from the following two-line orbital elements,

1 27372U 02005A   15028.53201211  .00000420  00000-0  14304-3 0  6616
2 27372 086.3985 291.6377 0001978 116.3739 327.5133 14.34214265686839
Epoch (UTC): 28 January 2015 12:46:05
Eccentricity: 0.0001978
inclination: 86.3985°
perigee height: 776 km
apogee height: 779 km
right ascension of ascending node: 291.6377°
argument of perigee: 116.3739°
revolutions per day: 14.34214265
mean anomaly at epoch: 327.5133°
orbit number at epoch: 68683

The dashed part of the orbit path shows where the satellite is in the earth's shadow,  

DLR